When you browse on this site, cookies collect data to enhance your experience and personalize the content and advertising you see.
Visit our Privacy Policy to learn more. By continuing to use the site, you agree to this use of cookies and data.
  • In France
  • List of Countries
  • For 7 days
  • Water Temperature
  • Satellite Maps
  • Weather Map
  • Weather Widgets
  • user-avatar
    Login

    Hourly Weather Wangqing

    Today, 20 July, Saturday

    Time Temperature Precipitation Wind Pressure Humidity
    00:00 +22°C° 0 mm 1 mps 731 mmHg 94%
    01:00 +21°C° 0 mm 1 mps 731 mmHg 95%
    02:00 +21°C° 0 mm 1 mps 731 mmHg 95%
    03:00 +19°C° 0 mm 0 mps 732 mmHg 96%
    04:00 +19°C° 0 mm 0 mps 732 mmHg 95%
    05:00 +19°C° 0 mm 0 mps 732 mmHg 95%
    06:00 +19°C° 0 mm 0 mps 732 mmHg 94%
    07:00 +23°C° 0 mm 1 mps 732 mmHg 87%
    08:00 +25°C° 0 mm 1 mps 732 mmHg 79%
    09:00 +26°C° 0 mm 3 mps 732 mmHg 72%
    10:00 +27°C° 0 mm 3 mps 732 mmHg 68%
    11:00 +28°C° 0 mm 3 mps 732 mmHg 63%
    12:00 +29°C° 0 mm 3 mps 731 mmHg 59%
    13:00 +30°C° 0 mm 4 mps 731 mmHg 61%
    14:00 +30°C° 0 mm 5 mps 731 mmHg 64%
    15:00 +29°C° 0 mm 6 mps 730 mmHg 68%
    16:00 +28°C° 0 mm 5 mps 730 mmHg 73%
    17:00 +27°C° 0 mm 5 mps 730 mmHg 78%
    18:00 +26°C° 0 mm 4 mps 730 mmHg 83%
    19:00 +25°C° 0 mm 4 mps 730 mmHg 86%
    20:00 +25°C° 0 mm 3 mps 731 mmHg 89%
    21:00 +24°C° 0 mm 3 mps 731 mmHg 91%
    22:00 +24°C° 0 mm 2 mps 731 mmHg 92%
    23:00 +24°C° 0 mm 2 mps 731 mmHg 93%

    Tomorrow, 21 July, Sunday

    Time Temperature Precipitation Wind Pressure Humidity
    00:00 +23°C° 0 mm 2 mps 731 mmHg 94%
    01:00 +23°C° 0 mm 2 mps 731 mmHg 93%
    02:00 +24°C° 0 mm 3 mps 731 mmHg 92%
    03:00 +24°C° 0 mm 3 mps 730 mmHg 92%
    04:00 +22°C° 0 mm 3 mps 730 mmHg 93%
    05:00 +23°C° 0 mm 2 mps 730 mmHg 94%
    06:00 +23°C° 0 mm 2 mps 730 mmHg 95%
    07:00 +24°C° 0 mm 3 mps 730 mmHg 91%
    08:00 +25°C° 0 mm 3 mps 730 mmHg 86%
    09:00 +26°C° 0 mm 3 mps 730 mmHg 82%
    10:00 +25°C° 0 mm 3 mps 730 mmHg 85%
    11:00 +25°C° 0 mm 3 mps 730 mmHg 88%
    12:00 +24°C° 0 mm 3 mps 730 mmHg 91%
    13:00 +24°C° 0.2 mm 2 mps 729 mmHg 92%
    14:00 +24°C° 0.2 mm 2 mps 729 mmHg 93%
    15:00 +23°C° 0.2 mm 2 mps 729 mmHg 94%
    16:00 +23°C° 2.7 mm 2 mps 728 mmHg 96%
    17:00 +23°C° 2.7 mm 1 mps 728 mmHg 97%
    18:00 +22°C° 2.7 mm 1 mps 727 mmHg 99%
    19:00 +22°C° 2.2 mm 1 mps 727 mmHg 99%
    20:00 +22°C° 2.2 mm 1 mps 727 mmHg 99%
    21:00 +20°C° 2.2 mm 0 mps 727 mmHg 99%
    22:00 +22°C° 4.7 mm 1 mps 726 mmHg 99%
    23:00 +22°C° 4.7 mm 1 mps 726 mmHg 99%

    Day after tomorrow, 22 July, Monday

    Time Temperature Precipitation Wind Pressure Humidity
    00:00 +22°C° 4.7 mm 1 mps 725 mmHg 99%
    01:00 +22°C° 6 mm 1 mps 725 mmHg 99%
    02:00 +22°C° 6 mm 1 mps 725 mmHg 99%
    03:00 +22°C° 6 mm 1 mps 724 mmHg 99%
    04:00 +22°C° 2.3 mm 1 mps 724 mmHg 99%
    05:00 +22°C° 2.3 mm 1 mps 724 mmHg 99%
    06:00 +22°C° 2.3 mm 1 mps 724 mmHg 99%
    07:00 +21°C° 0.3 mm 2 mps 724 mmHg 99%
    08:00 +23°C° 0.3 mm 2 mps 724 mmHg 98%
    09:00 +23°C° 0.3 mm 2 mps 725 mmHg 98%
    10:00 +25°C° 0.1 mm 3 mps 725 mmHg 86%
    11:00 +27°C° 0.1 mm 4 mps 725 mmHg 74%
    12:00 +30°C° 0.1 mm 5 mps 725 mmHg 63%
    13:00 +32°C° 0 mm 5 mps 725 mmHg 57%
    14:00 +33°C° 0 mm 4 mps 725 mmHg 51%
    15:00 +35°C° 0 mm 4 mps 725 mmHg 45%
    16:00 +34°C° 0 mm 3 mps 725 mmHg 50%
    17:00 +33°C° 0 mm 3 mps 725 mmHg 56%
    18:00 +31°C° 0 mm 2 mps 725 mmHg 61%
    19:00 +29°C° 0 mm 1 mps 726 mmHg 67%
    20:00 +27°C° 0 mm 1 mps 726 mmHg 73%
    21:00 +23°C° 0 mm 0 mps 726 mmHg 79%
    22:00 +22°C° 0 mm 0 mps 726 mmHg 81%
    23:00 +22°C° 0 mm 0 mps 726 mmHg 82%

    23 July, Tuesday

    Time Temperature Precipitation Wind Pressure Humidity
    00:00 +21°C° 0 mm 0 mps 726 mmHg 84%
    01:00 +21°C° 0.1 mm 0 mps 726 mmHg 87%
    02:00 +21°C° 0.1 mm 0 mps 726 mmHg 89%
    03:00 +20°C° 0.1 mm 0 mps 726 mmHg 91%
    04:00 +22°C° 0 mm 1 mps 726 mmHg 92%
    05:00 +22°C° 0 mm 1 mps 726 mmHg 93%
    06:00 +23°C° 0 mm 1 mps 726 mmHg 93%
    07:00 +25°C° 0 mm 2 mps 726 mmHg 84%
    08:00 +27°C° 0 mm 2 mps 726 mmHg 75%
    09:00 +30°C° 0 mm 3 mps 726 mmHg 65%
    10:00 +33°C° 0 mm 3 mps 726 mmHg 58%
    11:00 +34°C° 0 mm 4 mps 726 mmHg 52%
    12:00 +36°C° 0 mm 4 mps 726 mmHg 45%
    13:00 +36°C° 0 mm 4 mps 726 mmHg 44%
    14:00 +37°C° 0 mm 4 mps 725 mmHg 43%
    15:00 +37°C° 0 mm 3 mps 725 mmHg 43%
    16:00 +35°C° 0.1 mm 3 mps 725 mmHg 51%
    17:00 +33°C° 0.1 mm 3 mps 725 mmHg 59%
    18:00 +30°C° 0.1 mm 2 mps 725 mmHg 68%
    19:00 +28°C° 4 mm 2 mps 726 mmHg 78%
    20:00 +26°C° 4 mm 2 mps 726 mmHg 88%
    21:00 +24°C° 4 mm 2 mps 726 mmHg 98%
    22:00 +23°C° 1.1 mm 1 mps 726 mmHg 98%
    23:00 +23°C° 1.1 mm 1 mps 725 mmHg 98%

    24 July, Wednesday

    Time Temperature Precipitation Wind Pressure Humidity
    00:00 +23°C° 1.1 mm 1 mps 725 mmHg 98%
    01:00 +22°C° 0 mm 1 mps 725 mmHg 98%
    02:00 +22°C° 0 mm 1 mps 725 mmHg 98%
    03:00 +20°C° 0 mm 0 mps 725 mmHg 98%
    04:00 +20°C° 0.9 mm 0 mps 724 mmHg 98%
    05:00 +20°C° 0.9 mm 0 mps 724 mmHg 98%
    06:00 +20°C° 0.9 mm 0 mps 724 mmHg 98%
    07:00 +21°C° 0.8 mm 0 mps 724 mmHg 97%
    08:00 +23°C° 0.8 mm 1 mps 724 mmHg 97%
    09:00 +24°C° 0.8 mm 1 mps 724 mmHg 96%
    10:00 +26°C° 0.1 mm 1 mps 724 mmHg 87%
    11:00 +28°C° 0.1 mm 2 mps 723 mmHg 77%
    12:00 +30°C° 0.1 mm 3 mps 723 mmHg 68%
    13:00 +30°C° 0.7 mm 3 mps 723 mmHg 69%
    14:00 +30°C° 0.7 mm 3 mps 723 mmHg 71%
    15:00 +30°C° 0.7 mm 3 mps 723 mmHg 73%
    16:00 +30°C° 1 mm 2 mps 723 mmHg 79%
    17:00 +29°C° 1 mm 2 mps 723 mmHg 86%
    18:00 +28°C° 1 mm 2 mps 723 mmHg 93%
    19:00 +26°C° 0.8 mm 2 mps 723 mmHg 94%
    20:00 +25°C° 0.8 mm 1 mps 724 mmHg 95%
    21:00 +24°C° 0.8 mm 1 mps 724 mmHg 95%
    22:00 +23°C° 0.2 mm 1 mps 724 mmHg 96%
    23:00 +23°C° 0.2 mm 1 mps 725 mmHg 97%

    25 July, Thursday

    Time Temperature Precipitation Wind Pressure Humidity
    00:00 +22°C° 0.2 mm 1 mps 725 mmHg 97%
    01:00 +22°C° 0.1 mm 1 mps 725 mmHg 98%
    02:00 +22°C° 0.1 mm 1 mps 725 mmHg 98%
    03:00 +21°C° 0.1 mm 1 mps 725 mmHg 98%
    04:00 +21°C° 0 mm 1 mps 726 mmHg 97%
    05:00 +21°C° 0 mm 1 mps 726 mmHg 97%
    06:00 +21°C° 0 mm 1 mps 726 mmHg 97%
    07:00 +23°C° 0 mm 1 mps 727 mmHg 87%
    08:00 +24°C° 0 mm 1 mps 727 mmHg 78%
    09:00 +26°C° 0 mm 2 mps 727 mmHg 68%
    10:00 +27°C° 0 mm 2 mps 727 mmHg 61%
    11:00 +29°C° 0 mm 3 mps 727 mmHg 54%
    12:00 +30°C° 0 mm 3 mps 727 mmHg 47%
    13:00 +30°C° 0 mm 3 mps 727 mmHg 46%
    14:00 +31°C° 0 mm 3 mps 727 mmHg 45%
    15:00 +31°C° 0 mm 3 mps 727 mmHg 44%
    16:00 +31°C° 0 mm 3 mps 727 mmHg 50%
    17:00 +30°C° 0 mm 2 mps 727 mmHg 56%
    18:00 +29°C° 0 mm 2 mps 727 mmHg 61%
    19:00 +27°C° 0 mm 1 mps 728 mmHg 67%
    20:00 +26°C° 0 mm 1 mps 728 mmHg 72%
    21:00 +24°C° 0 mm 1 mps 729 mmHg 77%
    22:00 +23°C° 0.1 mm 1 mps 729 mmHg 81%
    23:00 +23°C° 0.1 mm 1 mps 729 mmHg 84%
    Show more